Wind_Speed
26 26 24 23 23 22 22 22 22 20 18 17 16 16 15 13 12 11 11 9 8 8 8 8 7 7 7 8 8 8 7 7 6 6 6 6 7 6 7 7 7 7 7 7 8 8 9 9 10
24 24 24 23 23 23 24 23 23 21 19 18 17 17 15 14 13 12 11 10 9 8 9 9 8 8 7 8 8 8 8 7 7 6 6 6 6 7 7 6 6 7 7 8 8 9 9 10 11
23 23 23 23 23 24 25 24 23 21 20 19 19 18 16 15 14 12 12 10 9 9 9 9 9 9 8 8 8 8 7 7 7 7 6 6 6 7 7 6 7 7 8 9 9 10 10 10 10
23 22 22 22 23 25 25 25 24 22 21 20 19 18 17 15 14 13 12 11 10 9 9 9 9 10 10 10 9 8 8 8 7 7 7 5 6 7 7 7 7 8 8 9 9 10 10 10 10
22 22 22 22 23 24 25 26 25 24 22 20 19 19 18 16 15 14 12 11 10 10 10 10 10 10 10 10 10 9 8 8 7 7 7 6 6 7 7 7 7 8 8 9 9 9 9 9 9
21 21 22 23 24 24 25 26 26 24 23 21 20 20 18 16 15 14 13 12 11 11 10 10 10 10 10 10 10 9 8 8 7 7 6 6 6 6 7 7 7 8 8 8 8 9 9 9 9
21 21 21 23 24 24 25 25 25 24 23 22 21 21 19 17 16 15 14 13 12 12 11 10 10 10 10 9 9 9 8 8 7 6 6 5 5 6 7 7 8 8 8 7 8 9 8 9 8
19 20 20 21 23 24 23 24 24 23 23 22 21 21 20 18 16 16 15 14 13 13 12 11 10 10 10 10 9 9 9 8 7 7 6 6 6 7 7 6 7 8 8 8 9 8 8 8 8
16 18 18 19 22 22 22 23 23 23 22 22 22 22 21 19 17 16 16 15 14 14 13 13 12 11 10 10 9 8 8 7 7 7 6 6 6 7 7 6 6 7 7 9 9 9 9 9 8
14 16 16 17 19 20 21 22 22 22 22 21 21 21 21 20 19 17 16 15 15 14 14 13 12 12 11 10 9 9 8 7 8 7 7 7 7 7 7 6 6 6 7 8 7 8 8 7 6
12 13 14 16 17 18 19 20 21 21 21 20 20 20 20 20 20 18 17 16 15 15 14 14 13 13 12 11 10 9 8 7 7 7 7 6 6 6 6 6 6 6 6 6 6 6 7 6 5
8 10 12 13 14 16 17 18 19 19 20 20 19 19 19 19 19 18 18 17 16 15 14 14 13 12 12 11 10 9 8 7 6 6 6 6 6 6 6 6 6 6 6 6 6 5 5 5 5
4 7 9 11 12 13 14 15 17 18 18 18 18 18 18 18 18 18 17 17 16 15 15 14 13 12 12 11 10 10 9 7 7 6 6 5 5 5 5 5 5 5 5 5 5 5 4 4 4
1 3 6 8 10 11 13 13 14 16 16 16 16 16 16 17 17 17 17 16 15 15 14 14 14 13 12 11 10 9 9 8 7 7 6 5 5 5 4 4 4 4 4 4 4 5 5 5 5
3 1 2 4 6 8 9 11 12 13 14 15 15 15 15 16 16 16 16 16 15 14 14 14 14 13 12 11 10 9 9 9 8 7 6 5 4 4 3 3 3 3 3 3 4 5 5 5 5
6 4 2 2 3 5 6 8 9 10 11 13 12 13 13 14 14 15 15 15 14 14 14 14 13 13 12 11 10 9 9 8 8 7 6 4 3 2 2 1 1 2 3 3 3 4 5 5 5
9 6 4 3 3 3 4 5 7 8 9 10 11 11 11 12 12 13 14 14 14 14 13 13 13 12 12 11 9 9 8 8 7 7 5 4 3 2 1 1 0 1 2 3 4 4 5 5 6
12 10 7 5 5 4 4 4 5 6 6 7 8 9 9 9 9 10 11 12 13 13 13 12 12 12 11 11 10 9 8 7 6 6 5 4 3 2 1 1 1 1 3 3 4 5 6 6 6
15 12 10 8 8 6 5 4 4 5 5 5 6 7 6 7 7 7 8 9 11 11 11 11 11 11 11 10 10 9 8 7 6 6 5 4 3 3 2 3 3 3 3 5 5 5 7 7 7
18 15 14 12 10 9 7 5 3 5 5 4 4 5 5 6 6 6 6 7 8 9 9 10 11 11 10 10 10 9 8 7 7 6 5 5 4 3 3 3 3 4 4 4 5 5 6 7 8
21 19 17 15 13 12 10 8 6 5 5 4 5 5 5 5 5 6 6 6 6 7 8 8 9 10 10 10 10 9 9 7 6 6 5 5 5 4 3 3 4 4 5 6 6 6 6 8 8
23 21 20 18 17 15 14 13 8 8 7 6 5 6 6 5 5 5 5 5 5 6 6 8 8 9 9 10 9 9 8 8 7 6 5 5 5 4 4 4 5 5 6 6 6 7 7 7 7
25 24 23 21 20 19 17 17 12 11 9 8 7 7 7 6 6 6 6 6 6 6 6 7 7 8 8 9 8 9 8 8 8 7 6 5 5 5 5 5 5 5 6 6 6 7 7 7 8
28 27 26 24 24 23 20 19 16 13 11 9 9 8 9 8 8 7 7 7 7 7 7 7 7 8 8 8 8 8 8 8 8 7 6 6 6 6 6 6 5 6 6 7 7 7 7 8 9
30 29 28 27 27 26 23 22 19 16 14 13 12 11 11 10 9 9 9 9 9 8 8 9 8 8 9 9 8 8 8 9 8 8 7 7 7 7 7 7 6 6 7 7 7 7 7 8 9
31 30 30 29 28 26 26 24 20 18 16 15 15 14 13 12 12 11 10 10 10 10 10 10 9 9 9 10 10 9 9 9 9 9 8 8 8 8 8 8 8 8 8 8 8 8 8 9 9
31 30 29 29 28 27 26 25 21 20 20 18 16 15 14 12 13 13 11 10 11 11 11 10 10 11 11 11 11 11 10 10 10 9 9 9 9 9 9 10 10 9 9 10 9 9 9 9 10
31 30 30 30 29 28 28 26 24 21 21 20 18 17 15 14 14 14 13 12 12 13 13 11 10 11 12 13 13 13 13 13 12 11 11 11 11 11 11 11 11 11 11 11 11 11 11 11 10
32 31 31 31 31 30 28 26 24 22 21 20 18 17 16 15 15 15 14 14 15 15 14 13 13 13 13 14 14 15 15 14 13 13 13 14 14 14 14 13 13 13 13 12 12 13 13 13 13
32 31 31 32 31 31 30 28 25 22 21 20 18 17 16 17 17 17 16 16 16 17 16 16 16 15 15 15 16 16 16 16 15 15 16 16 16 17 17 16 16 15 15 15 15 14 14 15 15
Wind_Direction
57 56 57 58 56 56 57 58 57 56 54 54 55 56 56 56 54 57 58 62 68 77 87 96 100 107 109 106 106 108 108 106 110 118 113 119 122 125 125 129 128 129 132 134 134 127 133 133 131
58 56 56 57 58 58 58 58 56 55 54 53 54 54 55 55 56 58 60 65 73 79 84 93 104 110 110 106 102 106 108 104 107 115 116 126 125 125 125 124 127 132 133 131 131 127 133 133 133
58 55 54 56 58 58 59 57 56 54 52 52 52 52 53 54 56 59 62 66 73 79 84 88 96 102 103 105 102 102 100 99 103 107 116 123 120 120 117 124 127 129 130 130 132 131 135 135 136
59 56 55 56 57 58 58 58 57 54 51 50 52 53 53 53 55 58 63 67 71 79 85 86 90 93 93 96 98 99 94 94 101 99 109 118 122 119 120 127 126 127 127 130 132 134 138 135 138
61 58 57 57 57 57 56 56 56 54 51 50 52 54 53 53 55 56 61 66 71 77 85 88 89 92 92 94 96 94 89 89 92 93 101 110 118 119 120 127 125 129 130 132 132 136 138 137 138
60 58 56 55 55 55 55 54 54 52 51 50 52 56 55 53 54 56 60 65 71 75 81 85 86 89 90 91 93 90 89 88 87 90 95 100 113 120 120 128 129 128 135 137 135 137 137 137 141
59 56 55 56 55 54 55 54 53 51 50 49 51 54 54 52 53 57 61 65 70 73 76 79 79 84 87 86 86 84 83 86 88 90 96 105 114 122 121 117 128 132 136 141 145 147 144 146 145
61 56 55 56 55 53 54 54 52 51 50 49 49 51 52 51 52 56 60 65 69 72 74 77 79 80 82 83 82 83 83 82 87 92 96 101 113 123 123 124 123 130 138 143 149 147 144 144 148
61 56 55 55 55 54 53 53 52 50 49 48 49 49 50 49 49 53 59 64 68 71 73 73 72 74 78 76 77 77 80 79 87 96 97 102 116 121 122 130 134 136 138 146 149 147 145 145 147
63 58 56 55 56 56 54 52 51 50 49 48 48 48 48 47 47 51 56 62 66 68 71 73 72 73 75 75 74 75 79 80 89 101 98 99 112 118 121 128 133 139 149 153 150 147 146 146 146
63 59 60 59 57 55 54 53 50 48 46 46 46 46 45 44 45 49 53 58 61 65 68 69 69 68 69 69 70 71 73 76 84 96 97 99 111 120 124 130 138 145 153 153 150 150 154 153 156
58 57 63 63 59 57 53 51 51 47 44 42 43 44 43 43 44 47 50 54 57 61 64 64 64 66 66 65 64 65 65 69 75 85 83 94 116 127 134 139 147 154 154 151 154 160 165 170 174
68 55 60 63 61 57 53 50 48 47 45 44 43 43 43 42 43 45 48 50 54 58 60 61 61 61 63 62 60 60 61 64 70 72 76 82 99 122 127 139 142 146 158 169 170 174 175 180 186
148 58 58 59 59 54 49 47 44 46 45 43 42 41 43 43 43 45 46 48 51 54 56 57 58 58 58 57 56 56 56 56 64 70 77 82 92 107 118 126 138 143 157 178 185 185 186 191 200
236 182 48 43 55 50 47 43 41 41 42 41 41 41 42 42 43 45 45 47 49 50 51 53 54 55 55 56 56 55 54 51 51 59 72 84 90 92 92 116 146 160 162 180 196 202 201 205 215
243 239 268 4 33 34 34 36 35 33 34 34 38 40 41 43 44 43 43 44 47 49 49 50 51 52 52 54 53 51 51 49 48 50 54 69 74 77 88 94 144 183 193 199 208 214 216 223 232
244 245 258 279 322 352 3 11 16 15 18 24 29 34 37 41 41 41 41 41 45 47 49 49 50 48 48 48 49 48 45 46 43 41 37 39 38 40 62 75 127 214 219 228 232 232 233 234 238
246 247 250 261 273 289 318 335 353 356 359 14 17 21 27 33 34 36 38 39 43 46 47 46 46 46 46 46 44 42 39 37 32 27 20 11 360 346 348 326 294 277 253 251 248 243 240 238 239
242 242 243 249 258 263 280 296 325 341 350 352 359 7 18 22 22 26 30 35 38 42 44 43 42 41 43 44 42 36 33 29 25 20 17 13 357 334 316 302 299 291 275 265 263 261 249 248 244
236 240 243 246 251 254 254 261 298 318 321 321 340 351 358 4 10 7 14 23 30 31 37 40 38 36 35 35 35 31 25 23 21 15 13 7 359 338 320 304 299 292 284 270 265 267 266 259 253
235 239 243 246 251 255 256 256 271 294 301 308 324 332 342 350 351 352 357 7 14 15 18 28 33 29 27 27 25 22 20 16 12 9 8 2 347 332 317 307 300 291 280 273 270 269 270 264 260
236 240 243 248 250 255 260 260 265 280 285 294 305 311 323 329 334 334 340 343 353 356 358 7 18 18 16 13 13 11 11 6 359 354 356 358 353 336 318 311 300 300 288 279 271 271 270 268 264
235 239 244 248 250 254 257 263 269 274 281 284 286 292 292 299 310 319 323 322 330 334 334 340 353 356 359 1 0 1 358 353 348 343 340 337 336 331 321 310 297 296 295 288 279 273 272 269 268
234 238 242 245 250 255 258 262 267 272 277 281 281 284 284 284 289 302 310 314 315 315 317 320 326 333 339 347 351 349 345 341 338 342 339 332 322 317 313 304 300 300 300 298 291 284 277 270 269
233 238 242 245 249 255 258 258 263 266 272 273 274 278 280 281 278 285 294 301 307 306 306 307 310 313 322 329 333 335 331 331 330 329 328 325 321 314 307 301 297 296 297 296 294 290 286 278 271
234 238 243 249 252 255 256 259 260 260 266 271 272 275 276 274 275 278 285 295 301 299 297 293 297 306 311 316 317 318 318 316 316 317 313 312 312 309 303 302 298 293 292 292 292 289 285 283 280
234 237 242 249 251 254 256 258 260 262 265 268 268 270 272 274 275 273 273 282 289 289 291 294 291 296 300 303 308 307 306 303 301 303 303 301 300 297 296 298 297 295 292 289 287 284 280 277 279
233 236 240 246 250 254 257 260 263 265 266 267 267 267 269 271 273 268 266 271 278 280 285 288 291 296 297 302 307 304 301 298 290 293 293 291 289 288 290 291 288 289 289 285 282 280 277 274 274
232 236 240 245 249 254 259 262 263 264 266 267 265 265 267 265 267 265 262 266 271 277 283 288 286 290 296 297 303 302 297 298 296 289 291 289 287 288 290 289 286 284 284 285 283 281 276 276 275
234 237 241 246 250 255 260 263 264 263 265 267 266 267 268 261 259 261 261 262 267 274 282 286 288 290 292 296 296 297 293 291 290 290 289 288 289 286 284 285 284 283 280 279 279 280 279 279 279
Height
5886 5884 5882 5881 5879 5877 5874 5873 5871 5870 5869 5869 5867 5866 5865 5865 5865 5867 5864 5862 5861 5861 5861 5860 5860 5861 5861 5861 5862 5863 5864 5864 5865 5865 5866 5867 5868 5868 5869 5869 5870 5872 5873 5874 5875 5876 5878 5879 5880
5889 5887 5886 5884 5882 5879 5877 5875 5873 5873 5872 5871 5869 5868 5867 5866 5866 5865 5864 5863 5863 5862 5862 5861 5861 5862 5862 5863 5863 5864 5865 5865 5866 5867 5867 5868 5869 5869 5869 5870 5871 5872 5873 5874 5876 5877 5879 5880 5881
5892 5891 5890 5888 5885 5882 5880 5878 5876 5875 5874 5873 5871 5870 5869 5868 5868 5867 5866 5865 5865 5864 5864 5863 5863 5863 5863 5864 5864 5865 5865 5866 5866 5867 5868 5869 5869 5869 5870 5871 5872 5873 5874 5875 5877 5878 5880 5881 5883
5896 5895 5893 5891 5888 5885 5883 5881 5879 5878 5876 5875 5874 5873 5871 5871 5870 5869 5868 5867 5867 5866 5866 5865 5865 5865 5865 5865 5866 5866 5867 5867 5867 5868 5869 5869 5870 5870 5871 5872 5873 5874 5875 5877 5878 5879 5881 5882 5884
5899 5898 5896 5893 5891 5888 5886 5884 5882 5881 5879 5878 5877 5875 5874 5873 5872 5871 5870 5869 5869 5868 5867 5867 5866 5866 5867 5867 5867 5868 5868 5868 5868 5869 5870 5870 5871 5872 5872 5873 5874 5875 5877 5878 5879 5881 5882 5883 5885
5902 5900 5899 5896 5893 5891 5889 5886 5884 5884 5883 5881 5880 5878 5877 5876 5875 5873 5872 5871 5871 5870 5869 5869 5868 5868 5869 5869 5869 5869 5869 5869 5869 5870 5871 5871 5872 5873 5873 5874 5875 5876 5878 5879 5880 5882 5883 5885 5886
5904 5902 5900 5898 5896 5894 5892 5890 5888 5887 5886 5885 5883 5881 5880 5879 5878 5876 5875 5874 5873 5872 5871 5871 5870 5870 5870 5870 5870 5870 5870 5870 5870 5871 5871 5872 5873 5874 5874 5875 5876 5877 5879 5880 5881 5883 5884 5886 5887
5906 5906 5903 5901 5899 5898 5896 5894 5892 5891 5890 5888 5886 5885 5883 5882 5881 5879 5877 5876 5875 5874 5873 5873 5872 5872 5872 5872 5872 5872 5872 5872 5871 5871 5872 5872 5873 5875 5875 5876 5877 5878 5879 5881 5882 5883 5885 5886 5888
5908 5908 5905 5904 5902 5901 5899 5897 5896 5895 5893 5891 5890 5888 5887 5885 5883 5881 5880 5878 5877 5876 5875 5875 5874 5874 5874 5873 5873 5873 5873 5873 5873 5873 5873 5873 5874 5875 5877 5878 5879 5880 5880 5881 5882 5884 5885 5887 5889
5910 5909 5908 5907 5905 5903 5902 5901 5899 5898 5896 5895 5893 5891 5889 5888 5886 5884 5883 5881 5880 5878 5878 5877 5876 5876 5876 5875 5875 5875 5875 5874 5874 5874 5875 5875 5876 5877 5878 5879 5880 5881 5882 5883 5884 5885 5887 5888 5889
5911 5911 5910 5908 5907 5906 5905 5903 5902 5901 5899 5898 5896 5894 5892 5891 5889 5887 5886 5884 5883 5881 5880 5879 5879 5878 5878 5877 5877 5876 5876 5876 5876 5875 5876 5877 5877 5878 5879 5880 5881 5882 5883 5884 5885 5886 5888 5889 5890
5913 5912 5911 5910 5909 5908 5907 5906 5905 5904 5903 5901 5899 5897 5896 5894 5892 5890 5888 5887 5885 5884 5883 5882 5881 5880 5880 5879 5879 5878 5878 5877 5877 5877 5878 5878 5879 5880 5880 5881 5881 5882 5883 5884 5886 5887 5888 5889 5890
5914 5913 5913 5912 5911 5910 5909 5908 5907 5906 5905 5904 5902 5900 5899 5897 5895 5893 5891 5889 5888 5887 5886 5884 5883 5883 5882 5881 5881 5880 5880 5879 5879 5879 5879 5880 5880 5880 5881 5881 5882 5883 5884 5885 5886 5887 5888 5890 5890
5914 5914 5914 5913 5912 5911 5911 5910 5910 5909 5907 5906 5905 5903 5901 5900 5898 5896 5894 5892 5891 5890 5888 5887 5886 5885 5884 5883 5883 5882 5882 5881 5881 5880 5880 5881 5881 5881 5882 5883 5883 5884 5885 5886 5887 5888 5889 5889 5890
5914 5915 5915 5914 5913 5912 5912 5912 5911 5910 5910 5909 5907 5906 5904 5902 5900 5898 5896 5895 5894 5892 5891 5890 5888 5887 5886 5886 5885 5884 5883 5883 5882 5882 5882 5882 5882 5883 5883 5883 5884 5884 5885 5886 5887 5887 5888 5889 5890
5914 5914 5914 5914 5914 5913 5914 5913 5912 5912 5911 5910 5909 5908 5906 5904 5903 5901 5899 5897 5896 5894 5893 5892 5891 5890 5889 5888 5887 5886 5885 5884 5884 5883 5883 5883 5883 5884 5884 5884 5884 5884 5885 5886 5886 5887 5888 5889 5889
5913 5913 5913 5914 5914 5914 5914 5913 5913 5912 5912 5911 5911 5909 5908 5906 5904 5903 5901 5900 5898 5896 5895 5894 5893 5892 5891 5890 5889 5888 5887 5886 5885 5885 5884 5884 5884 5884 5884 5884 5884 5884 5885 5885 5886 5886 5887 5888 5888
5911 5912 5912 5912 5913 5913 5913 5913 5913 5913 5912 5912 5911 5910 5909 5907 5906 5904 5903 5902 5900 5898 5897 5896 5895 5894 5892 5891 5890 5889 5888 5887 5886 5886 5885 5885 5884 5884 5884 5884 5884 5884 5884 5885 5885 5885 5886 5886 5887
5909 5910 5910 5911 5912 5912 5913 5913 5913 5912 5912 5912 5911 5910 5909 5908 5906 5905 5904 5903 5901 5900 5899 5897 5896 5895 5894 5892 5891 5890 5889 5888 5887 5886 5886 5885 5884 5884 5884 5884 5884 5883 5883 5884 5884 5884 5884 5884 5885
5907 5908 5909 5910 5910 5911 5911 5912 5912 5912 5912 5911 5911 5910 5909 5908 5907 5905 5904 5903 5902 5901 5900 5898 5897 5896 5895 5893 5892 5891 5890 5889 5888 5887 5886 5885 5885 5884 5884 5883 5883 5883 5883 5883 5883 5883 5883 5883 5883
5904 5906 5907 5908 5908 5908 5910 5911 5911 5911 5911 5911 5910 5909 5909 5908 5907 5905 5904 5903 5902 5901 5900 5899 5897 5896 5895 5894 5893 5891 5890 5889 5888 5887 5886 5885 5885 5884 5883 5883 5882 5882 5882 5881 5881 5881 5881 5881 5881
5901 5903 5904 5904 5905 5906 5908 5909 5910 5910 5910 5909 5909 5908 5908 5907 5906 5905 5904 5903 5902 5901 5900 5899 5897 5896 5895 5894 5893 5892 5891 5890 5888 5887 5886 5885 5884 5884 5883 5882 5882 5881 5881 5880 5880 5880 5879 5879 5880
5898 5899 5900 5901 5902 5903 5904 5905 5907 5907 5908 5908 5907 5907 5906 5906 5905 5904 5903 5903 5902 5901 5900 5899 5897 5896 5895 5894 5893 5891 5890 5889 5888 5887 5886 5885 5884 5883 5882 5881 5881 5880 5879 5879 5878 5878 5878 5878 5878
5893 5895 5896 5897 5898 5899 5901 5902 5903 5904 5905 5905 5905 5905 5905 5905 5904 5903 5902 5902 5901 5900 5899 5898 5897 5895 5894 5893 5892 5891 5890 5889 5887 5886 5885 5884 5883 5882 5881 5880 5879 5878 5878 5877 5876 5876 5876 5875 5875
5888 5891 5892 5893 5894 5895 5897 5897 5900 5901 5902 5902 5902 5902 5903 5903 5902 5901 5901 5900 5899 5898 5897 5896 5895 5894 5893 5892 5890 5889 5889 5887 5886 5885 5884 5883 5881 5880 5880 5879 5877 5877 5876 5876 5875 5874 5873 5873 5873
5883 5885 5888 5889 5889 5891 5892 5893 5896 5897 5898 5898 5899 5899 5899 5900 5900 5899 5898 5898 5897 5896 5894 5893 5893 5892 5891 5890 5889 5888 5887 5885 5884 5883 5882 5881 5880 5879 5878 5877 5876 5875 5874 5874 5873 5872 5871 5870 5870
5877 5879 5882 5883 5884 5885 5887 5889 5891 5892 5893 5895 5895 5896 5896 5896 5896 5896 5896 5895 5894 5893 5892 5891 5890 5889 5888 5887 5886 5885 5884 5883 5882 5881 5879 5878 5877 5876 5875 5875 5874 5873 5872 5871 5870 5869 5868 5868 5867
5872 5874 5877 5878 5878 5880 5882 5884 5886 5888 5889 5891 5892 5892 5892 5892 5892 5893 5893 5892 5891 5890 5890 5888 5887 5886 5885 5884 5883 5882 5881 5880 5879 5878 5876 5875 5874 5873 5873 5872 5871 5870 5869 5868 5867 5866 5866 5865 5864
5866 5869 5870 5872 5874 5875 5876 5881 5882 5883 5885 5886 5887 5887 5888 5888 5888 5889 5889 5889 5888 5887 5886 5885 5884 5882 5882 5881 5879 5878 5877 5876 5875 5874 5873 5872 5871 5870 5869 5868 5868 5867 5866 5865 5864 5863 5863 5862 5861
5860 5863 5865 5867 5869 5870 5871 5877 5877 5878 5879 5881 5882 5882 5883 5883 5884 5884 5885 5885 5884 5884 5883 5882 5881 5879 5877 5877 5876 5875 5873 5872 5872 5871 5869 5868 5867 5866 5865 5864 5863 5862 5862 5861 5860 5860 5859 5858 5857